Back to catalog

SL-8 DEB

AlivePO
NORAD 29287·DEBRIS·🇷🇺 Russia

Launched Dec 17, 1981 from Plesetsk Cosmodrome

Loading…

Next Passes (next 24 hours)

TLE

FreshSource: Space-Track

Epoch: Sep 13, 2026, 17:49 UTC

1 29287U 81120R   26256.74272377  .00000104  00000-0  11094-2 0  9992
2 29287  82.9600  59.1509 0021704 213.9513 146.0158 12.04485184181037

Track SL-8 DEB in real time with AllMySat

Download on the App Store